Location: Champs
(48.8539°N, 2.6040°E)
Time: 04:28:25
(UTC+00:00)

Cosmos 2181 Rocket - Pass Details

Date: 26 October 2021
Orbit: 952 x 1014 km, 82.9° (Epoch: 30 November)

Event Time Altitude Azimuth Distance (km) Brightness Sun altitude
Exits shadow 04:27:42 34° 247° (WSW) 1,558 4.5 -20.2°
Maximum altitude 04:29:37 43° 288° (WNW) 1,355 4.3 -19.9°
Drops below altitude 10° 04:35:36 10° 359° (N) 2,758 6.4 -18.9°
Sets 04:38:19 0° 6° (N) 3,721 7.1 -18.5°
